This demonstration page uses our WeatherBlox Daily Observations layout. Learn more.

40.92945, -100.16068

Hourly Observations for March 5, 2020

Temp ( °F °C ) Dew Point ( °F °C ) Humidity (%) Winds ( mph kmh ) Pressure ( in mb ) Visibility ( mi km ) Precip ( " mm )
12:15 am 00:15 Clear 46 7.5 32 0.2 60 60 N 21 33 30.01 1016 10 16.0934 0 0
12:55 am 00:55 Clear 43 6.3 34 1 69 69 NNW 18 30 30.07 1018 10 16.0934 0 0
1:15 am 01:15 Clear 43 6.1 34 1 70 70 NNW 21 33 30.09 1019 10 16.0934 0 0
1:35 am 01:35 Clear 42 5.5 34 1 73 73 NNW 24 39 30.12 1020 10 16.0934 0 0
1:55 am 01:55 Clear 42 5.4 33 0.6 71 71 NNW 20 31 30.13 1020 10 16.0934 0 0
2:15 am 02:15 Clear 40 4.5 33 0.5 76 76 NNW 20 31 30.15 1021 10 16.0934 0 0
2:35 am 02:35 Clear 40 4.2 32 0 74 74 NNW 20 31 30.19 1022 10 16.0934 0 0
2:55 am 02:55 Clear 39 3.7 32 -0.1 76 76 NW 15 24 30.19 1022 10 16.0934 0 0
3:15 am 03:15 Clear 38 3.1 32 -0.2 79 79 NW 13 20 30.2 1023 10 16.0934 0 0
3:35 am 03:35 Clear 37 2.6 31 -0.3 81 81 NW 13 20 30.21 1023 10 16.0934 0 0
3:55 am 03:55 Clear 36 2 31 -0.8 82 82 WNW 10 17 30.24 1024 10 16.0934 0 0
4:15 am 04:15 Clear 34 1.3 30 -1.1 84 84 WNW 10 17 30.25 1025 10 16.0934 0 0
4:35 am 04:35 Clear 35 1.6 30 -1.1 82 82 WNW 12 19 30.26 1025 10 16.0934 0 0
4:55 am 04:55 Clear 34 1 29 -1.6 83 83 NW 12 19 30.28 1025 10 16.0934 0 0
5:15 am 05:15 Clear 34 0.9 29 -1.7 83 83 WNW 12 19 30.29 1026 10 16.0934 0 0
5:35 am 05:35 Clear 33 0.5 28 -2 84 84 WNW 10 17 30.31 1027 10 16.0934 0 0
5:55 am 05:55 Clear 33 0.3 28 -2 85 85 WNW 12 19 30.32 1027 10 16.0934 0 0
6:15 am 06:15 Clear 32 0.2 28 -2.2 84 84 WNW 13 20 30.34 1027 10 16.0934 0 0
6:35 am 06:35 Clear 31 -0.3 28 -2.5 85 85 WNW 9 15 30.35 1028 10 16.0934 0 0
6:55 am 06:55 Clear 31 -0.5 27 -2.7 85 85 WNW 12 19 30.36 1028 10 16.0934 0 0
7:15 am 07:15 Sunny 32 -0.2 28 -2.3 86 86 WNW 10 17 30.37 1028 10 16.0934 0 0
7:35 am 07:35 Sunny 32 -0.2 28 -2.2 87 87 WNW 10 17 30.37 1028 10 16.0934 0 0
7:55 am 07:55 Sunny 33 0.7 29 -1.7 84 84 WNW 12 19 30.37 1028 10 16.0934 0 0
8:15 am 08:15 Sunny 35 1.8 29 -1.6 78 78 WNW 15 24 30.38 1029 10 16.0934 0 0
8:35 am 08:35 Sunny 37 2.5 29 -1.7 74 74 NW 17 28 30.38 1029 10 16.0934 0 0
8:55 am 08:55 Sunny 38 3.4 29 -1.8 69 69 NW 21 33 30.38 1029 10 16.0934 0 0
9:15 am 09:15 Sunny 41 4.8 27 -2.8 58 58 NW 21 33 30.39 1029 10 16.0934 0 0
9:35 am 09:35 Sunny 42 5.8 26 -3.6 51 51 NW 20 31 30.38 1029 10 16.0934 0 0
9:55 am 09:55 Sunny 44 6.7 25 -4.1 46 46 NW 17 28 30.38 1029 10 16.0934 0 0
10:15 am 10:15 Sunny 46 7.7 20 -6.4 36 36 NNW 31 50 30.37 1029 10 16.0934 0 0
10:35 am 10:35 Sunny 47 8.2 18 -7.6 32 32 NW 28 44 30.38 1029 10 16.0934 0 0
10:55 am 10:55 Sunny 47 8.6 19 -7.2 32 32 NW 28 44 30.37 1029 10 16.0934 0 0
11:15 am 11:15 Sunny 48 9.1 19 -7.4 31 31 NW 31 50 30.38 1029 10 16.0934 0 0
11:35 am 11:35 Sunny 49 9.4 17 -8.2 28 28 NW 30 48 30.38 1029 10 16.0934 0 0
11:55 am 11:55 Sunny 50 9.8 17 -8.4 27 27 NW 29 46 30.37 1029 10 16.0934 0 0
12:15 pm 12:15 Sunny 50 10.1 15 -9.3 25 25 NW 31 50 30.37 1028 10 16.0934 0 0
12:35 pm 12:35 Sunny 51 10.3 16 -9.1 25 25 NNW 29 46 30.37 1028 10 16.0934 0 0
12:55 pm 12:55 Sunny 51 10.6 15 -9.4 24 24 NW 30 48 30.37 1028 10 16.0934 0 0
1:15 pm 13:15 Sunny 51 10.4 16 -9.1 25 25 NW 30 48 30.37 1028 10 16.0934 0 0
1:35 pm 13:35 Sunny 51 10.5 17 -8.5 26 26 NNW 23 37 30.36 1028 10 16.0934 0 0
1:55 pm 13:55 Sunny 51 10.8 17 -8.6 25 25 NW 23 37 30.35 1028 10 16.0934 0 0
2:15 pm 14:15 Sunny 52 10.9 16 -9 24 24 N 28 44 30.35 1028 10 16.0934 0 0
2:35 pm 14:35 Sunny 52 10.9 15 -9.4 23 23 NNW 28 44 30.35 1028 10 16.0934 0 0
2:55 pm 14:55 Sunny 52 11.1 15 -9.7 22 22 NNW 24 39 30.35 1028 10 16.0934 0 0
3:15 pm 15:15 Sunny 52 11.2 15 -9.6 22 22 NNW 23 37 30.36 1028 10 16.0934 0 0
3:35 pm 15:35 Sunny 52 11 14 -9.8 22 22 NNW 22 35 30.36 1028 10 16.0934 0 0
3:55 pm 15:55 Sunny 52 11 14 -9.9 22 22 NNW 22 35 30.36 1028 10 16.0934 0 0
4:15 pm 16:15 Sunny 51 10.8 14 -9.8 23 23 NNW 22 35 30.36 1028 10 16.0934 0 0
4:35 pm 16:35 Sunny 51 10.7 14 -10.1 22 22 NNW 21 33 30.36 1028 10 16.0934 0 0
4:55 pm 16:55 Sunny 51 10.5 13 -10.3 22 22 NNW 21 33 30.37 1028 10 16.0934 0 0
5:15 pm 17:15 Sunny 50 10.2 13 -10.5 22 22 NNW 18 30 30.38 1029 10 16.0934 0 0
5:35 pm 17:35 Sunny 50 9.8 14 -9.8 24 24 NNW 16 26 30.39 1029 10 16.0934 0 0
5:55 pm 17:55 Sunny 49 9.2 15 -9.2 26 26 NNW 14 22 30.4 1029 10 16.0934 0 0
6:15 pm 18:15 Sunny 47 8.1 16 -9.1 29 29 NNW 12 19 30.42 1030 10 16.0934 0 0
6:35 pm 18:35 Sunny 43 6.3 16 -9 33 33 N 9 15 30.44 1031 10 16.0934 0 0
6:55 pm 18:55 Clear 38 3.3 16 -8.9 41 41 N 8 13 30.47 1032 10 16.0934 0 0
7:15 pm 19:15 Clear 37 2.6 15 -9.2 42 42 N 9 15 30.48 1032 10 16.0934 0 0
7:35 pm 19:35 Clear 34 1.1 16 -9.1 47 47 N 7 11 30.5 1033 10 16.0934 0 0
7:55 pm 19:55 Clear 33 0.4 15 -9.4 48 48 NNE 3 6 30.51 1033 10 16.0934 0 0
8:15 pm 20:15 Clear 33 0.4 16 -9 50 50 N 5 7 30.51 1033 10 16.0934 0 0
8:35 pm 20:35 Clear 29 -1.6 17 -8.1 62 62 Calm 30.53 1034 10 16.0934 0 0
8:55 pm 20:55 Clear 28 -2.1 17 -8.1 64 64 WSW 3 6 30.55 1035 10 16.0934 0 0
9:15 pm 21:15 Clear 29 -1.5 19 -7.2 66 66 WNW 6 9 30.55 1035 10 16.0934 0 0
9:35 pm 21:35 Clear 25 -3.8 18 -7.9 73 73 NW 6 9 30.59 1036 10 16.0934 0 0
9:55 pm 21:55 Clear 25 -3.9 16 -8.8 69 69 NNW 7 11 30.59 1036 10 16.0934 0 0
10:15 pm 22:15 Clear 26 -3.5 18 -7.8 72 72 NW 7 11 30.59 1036 10 16.0934 0 0
10:35 pm 22:35 Clear 25 -4 19 -7 80 80 W 5 7 30.61 1037 10 16.0934 0 0
10:55 pm 22:55 Clear 26 -3.3 19 -7.5 73 73 W 3 6 30.6 1036 10 16.0934 0 0
11:15 pm 23:15 Clear 27 -3 19 -7.3 73 73 Calm 30.6 1036 10 16.0934 0 0
11:35 pm 23:35 Clear 26 -3.2 18 -7.8 71 71 Calm 30.6 1036 10 16.0934 0 0
11:55 pm 23:55 Clear 25 -3.8 18 -7.9 73 73 Calm 30.6 1036 10 16.0934 0 0

Powered by AerisWeather